• In Hungary
  • List of Countries
  • For 7 days
  • Water Temperature
  • Satellite Maps
  • Weather Map
  • News
  • Weather Widgets
  • user-avatar
    Login

    Hourly Weather Staryj Krym

    Today, 25 September, Tuesday

    Time Temperature Precipitation Wind Pressure Humidity
    00:00 +17°C° 0 mm 4 mps 716 mmHg 81%
    01:00 +15°C° 0 mm 5 mps 716 mmHg 82%
    02:00 +14°C° 0 mm 5 mps 716 mmHg 83%
    03:00 +12°C° 0 mm 7 mps 716 mmHg 83%
    04:00 +11°C° 0 mm 8 mps 716 mmHg 82%
    05:00 +10°C° 0 mm 9 mps 716 mmHg 82%
    06:00 +8°C° 0.3 mm 9 mps 717 mmHg 82%
    07:00 +7°C° 0.3 mm 9 mps 717 mmHg 83%
    08:00 +7°C° 0 mm 8 mps 718 mmHg 83%
    09:00 +7°C° 0.2 mm 8 mps 719 mmHg 80%
    10:00 +7°C° 0.2 mm 8 mps 719 mmHg 77%
    11:00 +7°C° 0.2 mm 8 mps 720 mmHg 75%
    12:00 +9°C° 0 mm 7 mps 720 mmHg 70%
    13:00 +10°C° 0 mm 7 mps 721 mmHg 64%
    14:00 +10°C° 0 mm 6 mps 721 mmHg 59%
    15:00 +10°C° 0 mm 6 mps 721 mmHg 58%
    16:00 +10°C° 0 mm 5 mps 721 mmHg 56%
    17:00 +10°C° 0 mm 5 mps 722 mmHg 54%
    18:00 +9°C° 0 mm 5 mps 722 mmHg 57%
    19:00 +9°C° 0 mm 5 mps 722 mmHg 60%
    20:00 +8°C° 0 mm 5 mps 723 mmHg 63%
    21:00 +7°C° 0 mm 6 mps 723 mmHg 66%
    22:00 +7°C° 0 mm 6 mps 723 mmHg 69%
    23:00 +5°C° 0 mm 6 mps 724 mmHg 72%

    Tomorrow, 26 September, Wednesday

    Time Temperature Precipitation Wind Pressure Humidity
    00:00 +5°C° 0 mm 6 mps 724 mmHg 73%
    01:00 +5°C° 0 mm 6 mps 724 mmHg 75%
    02:00 +5°C° 0 mm 6 mps 724 mmHg 76%
    03:00 +4°C° 0 mm 6 mps 725 mmHg 78%
    04:00 +4°C° 0 mm 6 mps 725 mmHg 79%
    05:00 +3°C° 0 mm 6 mps 725 mmHg 81%
    06:00 +4°C° 0 mm 6 mps 726 mmHg 76%
    07:00 +5°C° 0 mm 6 mps 726 mmHg 71%
    08:00 +7°C° 0 mm 6 mps 727 mmHg 66%
    09:00 +8°C° 0 mm 6 mps 727 mmHg 59%
    10:00 +9°C° 0 mm 6 mps 727 mmHg 53%
    11:00 +10°C° 0 mm 6 mps 728 mmHg 47%
    12:00 +10°C° 0 mm 6 mps 728 mmHg 45%
    13:00 +10°C° 0 mm 6 mps 728 mmHg 44%
    14:00 +11°C° 0 mm 6 mps 728 mmHg 43%
    15:00 +10°C° 0 mm 6 mps 728 mmHg 44%
    16:00 +9°C° 0 mm 5 mps 728 mmHg 46%
    17:00 +9°C° 0 mm 5 mps 728 mmHg 48%
    18:00 +8°C° 0 mm 5 mps 728 mmHg 49%
    19:00 +7°C° 0 mm 4 mps 728 mmHg 51%
    20:00 +7°C° 0 mm 4 mps 728 mmHg 52%
    21:00 +7°C° 0 mm 4 mps 729 mmHg 52%
    22:00 +6°C° 0 mm 4 mps 729 mmHg 52%
    23:00 +6°C° 0 mm 4 mps 729 mmHg 53%

    Day after tomorrow, 27 September, Thursday

    Time Temperature Precipitation Wind Pressure Humidity
    00:00 +6°C° 0 mm 4 mps 729 mmHg 54%
    01:00 +6°C° 0 mm 4 mps 729 mmHg 55%
    02:00 +5°C° 0 mm 3 mps 728 mmHg 56%
    03:00 +5°C° 0 mm 3 mps 728 mmHg 59%
    04:00 +5°C° 0 mm 3 mps 728 mmHg 61%
    05:00 +4°C° 0 mm 3 mps 728 mmHg 63%
    06:00 +7°C° 0 mm 3 mps 728 mmHg 60%
    07:00 +8°C° 0 mm 3 mps 728 mmHg 57%
    08:00 +9°C° 0 mm 3 mps 728 mmHg 54%
    09:00 +10°C° 0 mm 3 mps 728 mmHg 49%
    10:00 +11°C° 0 mm 3 mps 728 mmHg 45%
    11:00 +13°C° 0 mm 2 mps 728 mmHg 40%
    12:00 +13°C° 0 mm 2 mps 728 mmHg 38%
    13:00 +14°C° 0 mm 2 mps 728 mmHg 35%
    14:00 +15°C° 0 mm 2 mps 727 mmHg 33%
    15:00 +14°C° 0 mm 2 mps 727 mmHg 36%
    16:00 +13°C° 0 mm 2 mps 727 mmHg 39%
    17:00 +12°C° 0 mm 2 mps 726 mmHg 41%
    18:00 +10°C° 0 mm 2 mps 726 mmHg 44%
    19:00 +10°C° 0 mm 1 mps 727 mmHg 47%
    20:00 +9°C° 0 mm 1 mps 727 mmHg 50%
    21:00 +9°C° 0 mm 1 mps 726 mmHg 51%
    22:00 +8°C° 0 mm 2 mps 726 mmHg 52%
    23:00 +7°C° 0 mm 2 mps 726 mmHg 53%

    28 September, Friday

    Time Temperature Precipitation Wind Pressure Humidity
    00:00 +7°C° 0 mm 2 mps 726 mmHg 54%
    01:00 +7°C° 0 mm 2 mps 725 mmHg 54%
    02:00 +7°C° 0 mm 2 mps 725 mmHg 55%
    03:00 +7°C° 0 mm 2 mps 725 mmHg 54%
    04:00 +8°C° 0 mm 2 mps 725 mmHg 54%
    05:00 +8°C° 0 mm 2 mps 724 mmHg 53%
    06:00 +9°C° 0 mm 2 mps 725 mmHg 50%
    07:00 +12°C° 0 mm 2 mps 725 mmHg 47%
    08:00 +13°C° 0 mm 2 mps 725 mmHg 45%
    09:00 +15°C° 0 mm 2 mps 725 mmHg 43%
    10:00 +16°C° 0 mm 2 mps 725 mmHg 41%
    11:00 +17°C° 0 mm 2 mps 725 mmHg 40%
    12:00 +18°C° 0 mm 2 mps 724 mmHg 40%
    13:00 +18°C° 0 mm 2 mps 724 mmHg 41%
    14:00 +19°C° 0 mm 2 mps 723 mmHg 41%
    15:00 +18°C° 0 mm 2 mps 723 mmHg 46%
    16:00 +17°C° 0 mm 2 mps 722 mmHg 50%
    17:00 +16°C° 0 mm 3 mps 722 mmHg 55%
    18:00 +14°C° 0 mm 3 mps 722 mmHg 58%
    19:00 +14°C° 0 mm 2 mps 722 mmHg 62%
    20:00 +13°C° 0 mm 2 mps 722 mmHg 66%
    21:00 +13°C° 0 mm 2 mps 721 mmHg 69%
    22:00 +13°C° 0 mm 2 mps 721 mmHg 72%
    23:00 +12°C° 0 mm 2 mps 721 mmHg 74%

    29 September, Saturday

    Time Temperature Precipitation Wind Pressure Humidity
    00:00 +12°C° 0 mm 2 mps 721 mmHg 76%
    01:00 +12°C° 0 mm 2 mps 721 mmHg 78%
    02:00 +12°C° 0 mm 2 mps 720 mmHg 80%
    03:00 +10°C° 0 mm 2 mps 720 mmHg 81%
    04:00 +11°C° 0 mm 1 mps 720 mmHg 82%
    05:00 +11°C° 0 mm 1 mps 720 mmHg 83%
    06:00 +12°C° 0 mm 1 mps 720 mmHg 77%
    07:00 +14°C° 0 mm 2 mps 720 mmHg 71%
    08:00 +15°C° 0 mm 2 mps 720 mmHg 65%
    09:00 +16°C° 0 mm 1 mps 720 mmHg 60%
    10:00 +19°C° 0 mm 1 mps 720 mmHg 55%
    11:00 +20°C° 0 mm 1 mps 720 mmHg 51%
    12:00 +20°C° 0 mm 1 mps 720 mmHg 51%
    13:00 +20°C° 0 mm 1 mps 720 mmHg 51%
    14:00 +20°C° 0 mm 1 mps 720 mmHg 51%
    15:00 +19°C° 0 mm 1 mps 719 mmHg 54%
    16:00 +19°C° 0 mm 1 mps 719 mmHg 58%
    17:00 +18°C° 0 mm 1 mps 719 mmHg 61%
    18:00 +16°C° 0 mm 1 mps 719 mmHg 64%
    19:00 +15°C° 0 mm 1 mps 720 mmHg 68%
    20:00 +15°C° 0 mm 1 mps 720 mmHg 71%
    21:00 +14°C° 0 mm 1 mps 720 mmHg 72%
    22:00 +14°C° 0 mm 1 mps 720 mmHg 73%
    23:00 +14°C° 0 mm 1 mps 720 mmHg 74%

    30 September, Sunday

    Time Temperature Precipitation Wind Pressure Humidity
    00:00 +13°C° 0 mm 1 mps 720 mmHg 75%
    01:00 +13°C° 0 mm 2 mps 720 mmHg 76%
    02:00 +13°C° 0 mm 2 mps 720 mmHg 77%
    03:00 +13°C° 0 mm 2 mps 720 mmHg 78%
    04:00 +12°C° 0 mm 2 mps 720 mmHg 80%
    05:00 +11°C° 0 mm 3 mps 720 mmHg 82%
    06:00 +12°C° 0 mm 3 mps 721 mmHg 78%
    07:00 +13°C° 0 mm 3 mps 721 mmHg 74%
    08:00 +14°C° 0 mm 3 mps 721 mmHg 70%
    09:00 +17°C° 0 mm 3 mps 722 mmHg 66%
    10:00 +18°C° 0 mm 3 mps 722 mmHg 62%
    11:00 +19°C° 0 mm 3 mps 722 mmHg 57%
    12:00 +19°C° 0 mm 3 mps 722 mmHg 58%
    13:00 +19°C° 0 mm 3 mps 722 mmHg 59%
    14:00 +19°C° 0 mm 3 mps 722 mmHg 61%
    15:00 +18°C° 0 mm 3 mps 721 mmHg 64%
    16:00 +17°C° 0 mm 3 mps 721 mmHg 67%
    17:00 +16°C° 0 mm 3 mps 721 mmHg 71%
    18:00 +14°C° 0 mm 3 mps 721 mmHg 75%
    19:00 +13°C° 0 mm 3 mps 721 mmHg 80%
    20:00 +12°C° 0 mm 3 mps 721 mmHg 84%
    21:00 +12°C° 0 mm 3 mps 721 mmHg 85%
    22:00 +12°C° 0 mm 4 mps 721 mmHg 86%
    23:00 +12°C° 0 mm 4 mps 720 mmHg 87%
    Show more